GW4207 Weather Reports


Display with metric or nautical units.
time (UTC)temp
F
wind
direction
speed
MPH
gust
MPH
rain 1hr
in
rain 24hr
in
rain mn
in
humidity
%
barometer
mb
20260504141219 59 117 0.0 4.0 0.00 0.00 0.00 68 1004.8
20260504140717 58 72 0.0 3.0 0.00 0.00 0.00 68 1005.2
20260504140214 58 83 0.0 3.0 0.00 0.00 0.00 68 1005.1
20260504130708 53 105 3.0 5.0 0.00 0.00 0.00 71 1006.0
20260504130206 53 149 0.0 5.0 0.00 0.00 0.00 71 1005.9
20260504120157 49 137 0.0 4.0 0.00 0.00 0.00 72 1006.1
20260504110701 46 87 0.0 3.0 0.00 0.00 0.00 72 1006.0
20260504110154 46 342 1.0 3.0 0.00 0.00 0.00 71 1005.7
20260504100149 47 62 0.0 3.0 0.00 0.00 0.00 70 1005.7
20260504081652 48 89 0.0 5.0 0.00 0.00 0.00 68 1006.2
20260504081143 48 79 1.0 4.0 0.00 0.00 0.00 68 1006.3
20260504080645 48 110 0.0 4.0 0.00 0.00 0.00 68 1006.4
20260504080144 48 101 0.0 3.0 0.00 0.00 0.00 68 1006.4
20260504070140 49 62 1.0 5.0 0.00 0.00 0.00 66 1007.1
20260504050636 50 88 1.0 3.0 0.00 0.00 0.00 64 1008.6
20260504050137 50 97 1.0 4.0 0.00 0.00 0.00 64 1008.5
20260504045635 50 135 0.0 4.0 0.00 0.00 0.00 64 1008.5
20260504045133 50 127 1.0 3.0 0.00 0.00 0.00 63 1008.6
20260504044634 50 116 1.0 8.0 0.00 0.00 0.00 63 1008.5
20260504044623 50 103 0.0 8.0 0.00 0.00 0.00 63 1008.5
20260504043645 51 124 4.0 8.0 0.00 0.00 0.00 63 1008.6
20260504043137 51 93 2.0 3.0 0.00 0.00 0.00 63 1008.9
20260504042854 51 115 0.0 4.0 0.00 0.00 0.00 63 1008.9
20260504042359 51 117 1.0 4.0 0.00 0.00 0.00 63 1008.6
20260504041633 51 125 2.0 5.0 0.00 0.00 0.00 63 1008.8
20260504041129 51 37 0.0 5.0 0.00 0.00 0.00 63 1008.8
20260504040631 51 112 2.0 5.0 0.00 0.00 0.00 63 1009.2
20260504040137 51 89 0.0 5.0 0.00 0.00 0.00 63 1008.8
20260504035635 51 70 0.0 4.0 0.00 0.00 0.00 63 1008.9
20260504035129 51 68 0.0 4.0 0.00 0.00 0.00 63 1009.2
20260504034631 51 94 0.0 5.0 0.00 0.00 0.00 63 1009.3
20260504034128 51 116 0.0 5.0 0.00 0.00 0.00 63 1009.3
20260504033629 51 111 0.0 5.0 0.00 0.00 0.00 63 1009.2
20260504033128 51 54 0.0 5.0 0.00 0.00 0.00 63 1009.4
20260504032634 51 72 2.0 4.0 0.00 0.00 0.00 63 1009.6
20260504032128 51 16 1.0 5.0 0.00 0.00 0.00 63 1009.4
20260504031629 51 84 1.0 5.0 0.00 0.00 0.00 63 1009.3
20260504031127 51 122 2.0 4.0 0.00 0.00 0.00 63 1009.4
20260504030629 51 125 1.0 3.0 0.00 0.00 0.00 63 1009.5
20260504030127 51 269 0.0 3.0 0.00 0.00 0.00 63 1009.9
20260504025638 51 99 1.0 3.0 0.00 0.00 0.00 63 1009.8
20260504025126 51 133 2.0 4.0 0.00 0.00 0.00 63 1009.7
20260504024628 51 77 1.0 6.0 0.00 0.00 0.00 63 1009.5
20260504024126 51 134 0.0 9.0 0.00 0.00 0.00 63 1010.0
20260504023626 51 172 0.0 9.0 0.00 0.00 0.00 63 1009.8
20260504023126 51 131 8.0 9.0 0.00 0.00 0.00 63 1009.9
20260504022635 51 121 0.0 4.0 0.00 0.00 0.00 63 1009.6
20260504022125 51 117 0.0 5.0 0.00 0.00 0.00 63 1009.7
20260504021627 51 66 0.0 5.0 0.00 0.00 0.00 63 1009.7
20260504021121 51 74 0.0 5.0 0.00 0.00 0.00 64 1010.1
20260504020625 51 108 0.0 4.0 0.00 0.00 0.00 63 1009.8
20260504020125 51 116 0.0 5.0 0.00 0.00 0.00 63 1010.1
20260504015634 51 132 2.0 5.0 0.00 0.00 0.00 63 1010.0
20260504015123 51 109 0.0 4.0 0.00 0.00 0.00 63 1009.9
20260504014625 51 102 1.0 4.0 0.00 0.00 0.00 63 1009.9
20260504014123 51 108 0.0 3.0 0.00 0.00 0.00 63 1010.0
20260504013625 51 98 0.0 5.0 0.00 0.00 0.00 63 1010.1
20260504013124 51 122 1.0 5.0 0.00 0.00 0.00 63 1009.9
20260504012623 51 141 1.0 4.0 0.00 0.00 0.00 63 1009.9
20260504012126 51 111 1.0 2.0 0.00 0.00 0.00 62 1009.9
20260504011623 51 99 1.0 3.0 0.00 0.00 0.00 62 1010.1
20260504011122 51 73 2.0 3.0 0.00 0.00 0.00 62 1010.0
20260504010623 52 269 0.0 2.0 0.00 0.00 0.00 62 1009.9
20260504010340 52 66 0.0 4.0 0.00 0.00 0.00 62 1010.1
20260504005849 52 26 2.0 4.0 0.00 0.00 0.00 61 1010.2
20260504005130 52 62 0.0 3.0 0.00 0.00 0.00 61 1010.2
20260504004623 52 139 0.0 4.0 0.00 0.00 0.00 61 1010.1
20260504004119 52 157 0.0 4.0 0.00 0.00 0.00 61 1010.3
20260504003621 53 122 3.0 3.0 0.00 0.00 0.00 61 1010.2
20260504003120 53 105 0.0 4.0 0.00 0.00 0.00 60 1010.2
20260504002620 53 117 0.0 4.0 0.00 0.00 0.00 60 1010.2
20260504002131 53 119 2.0 5.0 0.00 0.00 0.00 60 1010.3
20260504001624 53 66 0.0 5.0 0.00 0.00 0.00 59 1010.1
20260504001119 53 119 1.0 4.0 0.00 0.00 0.00 59 1010.4
20260504000619 53 160 0.0 4.0 0.00 0.00 0.00 59 1010.3
20260504000118 54 109 1.0 4.0 0.00 0.00 0.00 59 1010.5
20260503235619 54 92 1.0 6.0 0.00 0.00 0.00 59 1010.5
20260503235117 54 284 2.0 6.0 0.00 0.00 0.00 59 1010.3
20260503234629 54 131 2.0 6.0 0.00 0.00 0.00 58 1010.4
20260503234116 54 118 0.0 4.0 0.00 0.00 0.00 58 1010.4
20260503233618 54 116 4.0 4.0 0.00 0.00 0.00 58 1010.8
20260503233115 54 67 1.0 5.0 0.00 0.00 0.00 58 1010.5
20260503232617 54 51 1.0 5.0 0.00 0.00 0.00 58 1010.7
20260503232115 54 119 2.0 5.0 0.00 0.00 0.00 57 1010.9
20260503231616 55 314 2.0 5.0 0.00 0.00 0.00 57 1011.1
20260503231123 55 136 0.0 4.0 0.00 0.00 0.00 56 1010.8
20260503230840 55 123 2.0 7.0 0.00 0.00 0.00 55 1011.1
20260503230114 55 28 2.0 7.0 0.00 0.00 0.00 55 1011.0
20260503225614 55 66 1.0 7.0 0.00 0.00 0.00 54 1011.0
20260503225113 56 310 2.0 7.0 0.00 0.00 0.00 54 1011.0
20260503224614 56 356 1.0 7.0 0.00 0.00 0.00 53 1011.2
20260503224112 57 11 0.0 7.0 0.00 0.00 0.00 53 1010.9
20260503223837 58 111 4.0 9.0 0.00 0.00 0.00 53 1010.7
20260503223113 58 338 1.0 9.0 0.00 0.00 0.00 51 1010.9
20260503222613 60 313 0.0 7.0 0.00 0.00 0.00 51 1010.8
20260503222327 60 226 2.0 7.0 0.00 0.00 0.00 49 1010.6
20260503221613 61 306 2.0 5.0 0.00 0.00 0.00 49 1010.8
20260503221111 61 339 2.0 5.0 0.00 0.00 0.00 49 1010.4
20260503220613 61 150 1.0 7.0 0.00 0.00 0.00 49 1010.3
20260503220116 62 134 3.0 7.0 0.00 0.00 0.00 48 1010.3
20260503215612 62 291 0.0 7.0 0.00 0.00 0.00 49 1010.3
20260503215110 62 6 0.0 5.0 0.00 0.00 0.00 48 1010.4
20260503214612 63 274 3.0 5.0 0.00 0.00 0.00 47 1010.8
20260503214342 63 11 1.0 6.0 0.00 0.00 0.00 47 1010.2
20260503213611 62 342 0.0 6.0 0.00 0.00 0.00 48 1010.4
20260503213115 62 308 2.0 5.0 0.00 0.00 0.00 48 1010.2
20260503212611 62 320 4.0 6.0 0.00 0.00 0.00 49 1010.5
20260503212108 62 141 2.0 6.0 0.00 0.00 0.00 48 1010.5
20260503211611 62 278 2.0 8.0 0.00 0.00 0.00 47 1010.4
20260503211109 63 259 3.0 8.0 0.00 0.00 0.00 47 1010.4
20260503210610 63 126 2.0 8.0 0.00 0.00 0.00 46 1010.5
20260503210118 64 65 4.0 6.0 0.00 0.00 0.00 46 1010.3
20260503205611 64 107 0.0 6.0 0.00 0.00 0.00 46 1010.3
20260503205107 64 164 2.0 7.0 0.00 0.00 0.00 46 1010.5
20260503204609 64 316 2.0 7.0 0.00 0.00 0.00 45 1010.4
20260503204108 64 337 2.0 7.0 0.00 0.00 0.00 46 1010.5
20260503203608 64 103 2.0 13.0 0.00 0.00 0.00 45 1010.8
20260503203107 64 155 3.0 13.0 0.00 0.00 0.00 46 1010.8
20260503202614 64 163 1.0 6.0 0.00 0.00 0.00 48 1010.4
20260503202106 64 245 3.0 6.0 0.00 0.00 0.00 48 1010.7
20260503201608 64 234 1.0 6.0 0.00 0.00 0.00 47 1010.8
20260503201105 63 289 2.0 6.0 0.00 0.00 0.00 47 1010.7
20260503200606 64 286 2.0 5.0 0.00 0.00 0.00 47 1011.1
20260503200339 64 76 2.0 5.0 0.00 0.00 0.00 46 1010.9
20260503195618 64 259 1.0 5.0 0.00 0.00 0.00 47 1011.4
20260503195110 64 143 5.0 7.0 0.00 0.00 0.00 47 1010.9
20260503194604 64 356 3.0 7.0 0.00 0.00 0.00 45 1011.0
20260503194103 64 56 2.0 6.0 0.00 0.00 0.00 47 1011.3
20260503193927 64 131 2.0 6.0 0.00 0.00 0.00 48 1010.9
20260503192604 64 248 1.0 7.0 0.00 0.00 0.00 47 1011.3
20260503192117 64 195 0.0 8.0 0.00 0.00 0.00 48 1011.6
20260503191603 64 179 1.0 8.0 0.00 0.00 0.00 47 1011.4
20260503191101 64 275 2.0 7.0 0.00 0.00 0.00 46 1011.3
20260503190603 64 251 2.0 6.0 0.00 0.00 0.00 46 1011.7
20260503185601 64 283 5.0 6.0 0.00 0.00 0.00 46 1011.9
20260503185319 64 327 0.0 6.0 0.00 0.00 0.00 49 1011.8
20260503184612 64 53 0.0 6.0 0.00 0.00 0.00 49 1011.9
20260503184059 63 274 3.0 6.0 0.00 0.00 0.00 47 1011.8
20260503183600 63 190 1.0 6.0 0.00 0.00 0.00 49 1012.2
20260503183101 64 290 2.0 6.0 0.00 0.00 0.00 49 1012.1
20260503182600 63 116 1.0 6.0 0.00 0.00 0.00 50 1012.2
20260503182058 62 295 3.0 6.0 0.00 0.00 0.00 49 1012.1
20260503181559 62 334 2.0 7.0 0.00 0.00 0.00 52 1012.3
20260503181106 61 96 3.0 7.0 0.00 0.00 0.00 52 1012.2
20260503180557 61 107 1.0 7.0 0.00 0.00 0.00 52 1012.5
20260503180058 62 218 2.0 7.0 0.00 0.00 0.00 49 1012.7
20260503175558 62 314 0.0 5.0 0.00 0.00 0.00 50 1012.6
20260503175055 62 341 4.0 5.0 0.00 0.00 0.00 50 1012.7
20260503174558 62 113 3.0 0.0 0.00 0.00 0.00 50 1012.9
20260503173538 62 311 2.0 6.0 0.00 0.00 0.00 50 1013.1
20260503173040 62 307 2.0 9.0 0.00 0.00 0.00 50 1012.9
20260503172545 61 295 1.0 9.0 0.00 0.00 0.00 50 1013.0
20260503172045 61 189 2.0 9.0 0.00 0.00 0.00 51 1012.9
20260503171537 60 143 1.0 6.0 0.00 0.00 0.00 53 1013.1
20260503171037 60 148 5.0 6.0 0.00 0.00 0.00 52 1013.2
20260503170531 60 261 3.0 6.0 0.00 0.00 0.00 53 1013.4
20260503150526 56 114 0.0 6.0 0.00 0.00 0.00 58 1014.2